N312FD -KBHM

Flight info

Callsign N312FD
Flight time N/A
Altitude VFR
Route PATTERN
Aircraft ULAC/L-DOV/C

Departure

Time N/A
Airport -

Arrival

Time 2026-04-20 00:31
Airport Birmingham-Shuttlesworth International Airport (KBHM)
Time Latitude Longitude Altitude Speed Heading
2026-04-20 00:23 33.37039 -86.84882 2772 ft 42 kts 43°
2026-04-20 00:23 33.37215 -86.84611 2842 ft 40 kts 38°
2026-04-20 00:24 33.37408 -86.84369 2882 ft 40 kts 34°
2026-04-20 00:24 33.39706 -86.83022 2987 ft 36 kts 20°
2026-04-20 00:24 33.40580 -86.82581 3038 ft 37 kts 20°
2026-04-20 00:24 33.40957 -86.82336 3046 ft 42 kts 26°
2026-04-20 00:25 33.41118 -86.82162 3117 ft 35 kts 33°
2026-04-20 00:25 33.41346 -86.81925 3100 ft 45 kts 29°
2026-04-20 00:25 33.41555 -86.81553 3065 ft 50 kts 53°
2026-04-20 00:25 33.41718 -86.80982 3067 ft 44 kts 48°
2026-04-20 00:26 33.41884 -86.80644 3097 ft 39 kts 23°
2026-04-20 00:26 33.42061 -86.80532 3145 ft 35 kts 19°
2026-04-20 00:26 33.42369 -86.80405 3378 ft 61 kts
2026-04-20 00:26 33.43809 -86.79829 3184 ft 50 kts
2026-04-20 00:27 33.44165 -86.79812 3172 ft 42 kts
2026-04-20 00:27 33.45018 -86.79771 3196 ft 39 kts 358°
2026-04-20 00:27 33.46998 -86.79585 3208 ft 41 kts
2026-04-20 00:27 33.47237 -86.79557 3117 ft 48 kts
2026-04-20 00:28 33.47563 -86.79554 3186 ft 34 kts
2026-04-20 00:28 33.47871 -86.79546 3198 ft 37 kts
2026-04-20 00:28 33.48293 -86.79493 3156 ft 41 kts
2026-04-20 00:28 33.48615 -86.79459 3140 ft 40 kts 10°
2026-04-20 00:29 33.48927 -86.79390 3122 ft 41 kts
2026-04-20 00:29 33.49323 -86.79282 1977 ft 71 kts 17°
2026-04-20 00:29 33.49843 -86.79072 1395 ft 57 kts 13°
2026-04-20 00:29 33.50338 -86.78928 1049 ft 65 kts 10°
2026-04-20 00:30 33.50652 -86.78843 852 ft 60 kts
2026-04-20 00:30 33.51129 -86.78793 959 ft 51 kts
2026-04-20 00:30 33.51501 -86.78740 906 ft 57 kts 356°
2026-04-20 00:30 33.51856 -86.78642 932 ft 53 kts 357°
2026-04-20 00:31 33.52205 -86.78595 1002 ft 46 kts
2026-04-20 00:31 33.52542 -86.78615 1044 ft 48 kts 351°
2026-04-20 00:31 33.52880 -86.78696 1075 ft 49 kts 358°
2026-04-20 00:31 33.53106 -86.78682 1109 ft 48 kts 359°
2026-04-20 00:32 33.53441 -86.78661 1145 ft 50 kts
2026-04-20 00:32 33.53912 -86.78562 1129 ft 50 kts 14°
2026-04-20 00:32 33.54256 -86.78391 1081 ft 52 kts 19°
2026-04-20 00:32 33.54458 -86.78211 1065 ft 54 kts 30°
2026-04-20 00:33 33.54752 -86.78033 887 ft 36 kts 13°
2026-04-20 00:33 33.54993 -86.77823 727 ft 32 kts 24°
2026-04-20 00:33 33.55104 -86.77697 677 ft 36 kts 35°
2026-04-20 00:33 33.55341 -86.77396 646 ft 38 kts 43°
2026-04-20 00:34 33.55486 -86.77137 626 ft 38 kts 41°
2026-04-20 00:34 33.55621 -86.76895 614 ft 27 kts 51°
2026-04-20 00:34 33.55696 -86.76772 608 ft 31 kts 53°
2026-04-20 00:34 33.55833 -86.76533 764 ft 32 kts 36°
2026-04-20 00:35 33.56053 -86.76550 890 ft 37 kts 341°
2026-04-20 00:35 33.56290 -86.76661 1002 ft 37 kts 347°
2026-04-20 00:35 33.56556 -86.76765 1133 ft 40 kts 339°
2026-04-20 00:35 33.56692 -86.77058 1252 ft 52 kts 283°
2026-04-20 00:36 33.56480 -86.77490 1327 ft 63 kts 243°
2026-04-20 00:36 33.56294 -86.77763 1384 ft 66 kts 239°
2026-04-20 00:36 33.55940 -86.78370 1471 ft 62 kts 250°
2026-04-20 00:36 33.55667 -86.78799 1573 ft 65 kts 245°
2026-04-20 00:37 33.55384 -86.79236 1667 ft 65 kts 244°
2026-04-20 00:37 33.55211 -86.79544 1690 ft 65 kts 258°
2026-04-20 00:37 33.54754 -86.80008 1717 ft 82 kts 164°
2026-04-20 00:37 33.54536 -86.79585 1499 ft 58 kts 88°
2026-04-20 00:38 33.54478 -86.79170 1388 ft 41 kts 72°
2026-04-20 00:38 33.54518 -86.78876 1205 ft 36 kts 57°
2026-04-20 00:38 33.54615 -86.78635 1041 ft 31 kts 47°
2026-04-20 00:38 33.54736 -86.78414 933 ft 32 kts 43°
2026-04-20 00:39 33.54868 -86.78193 858 ft 33 kts 46°
2026-04-20 00:39 33.54950 -86.78047 840 ft 31 kts 49°
2026-04-20 00:39 33.55139 -86.77727 766 ft 37 kts 45°
2026-04-20 00:39 33.55294 -86.77476 711 ft 36 kts 47°
2026-04-20 00:40 33.55433 -86.77231 631 ft 32 kts 49°
2026-04-20 00:40 33.55513 -86.77146 604 ft 5 kts 329°
2026-04-20 00:40 33.55559 -86.77193 605 ft 9 kts 316°
2026-04-20 00:40 33.55588 -86.77233 605 ft 3 kts 309°
2026-04-20 00:41 33.55633 -86.77237 606 ft 9 kts 46°
2026-04-20 00:41 33.55670 -86.77202 607 ft 9 kts 323°
2026-04-20 00:41 33.55714 -86.77251 609 ft 0 kts 321°